{"data":{"norad_id":82597,"epoch":"2026-09-18T08:45:23.707008Z","epoch_age_seconds":202774,"freshness":"STALE","line1":"1 82597U          26261.36485772  .00000908  00000+0  32412-3 0  9991","line2":"2 82597  66.7686 131.0906 0085664 102.7066 258.3629 14.36627160669139","mean_motion":14.3662716,"eccentricity":0.0085664,"inclination_deg":66.7686,"raan_deg":131.0906,"arg_perigee_deg":102.7066,"mean_anomaly_deg":258.3629,"bstar":0.00032412,"rev_number":66913,"period_min":100.23477490151,"perigee_km":708.43318534364,"apogee_km":830.89503217983,"semimajor_km":7147.8011087617,"source":"CELESTRAK","updated_at":"2026-09-20T09:00:32.436759Z"}}